SCP
0 1 2 1 1 1 1 1 1 1 1 1 0 0 1 1 1 1 1 1 1 1 1 1 1 1 1 1 1 1 1 1 1 1 1 1 0 0 1 0 0 0 0
0 1 1 1 1 1 1 1 1 1 1 0 0 0 1 1 1 1 1 1 1 1 1 1 1 0 1 1 1 1 1 1 1 1 1 0 0 0 0 0 0 0 0
0 1 1 1 1 1 1 1 1 1 1 0 0 0 0 0 1 1 1 1 1 1 1 1 0 0 1 1 1 1 1 1 1 1 0 0 0 0 0 0 0 0 0
1 1 1 1 1 1 1 1 1 1 0 0 0 0 0 0 1 1 1 1 1 1 0 0 1 1 1 1 1 1 1 1 1 0 0 0 0 0 0 0 0 0 0
0 1 1 1 2 1 1 1 1 0 0 0 0 0 0 0 1 1 1 1 1 1 1 1 1 1 1 1 1 1 1 1 1 0 0 0 0 0 0 0 0 0 0
0 1 1 2 2 2 1 1 0 0 0 0 0 0 0 0 1 1 1 1 1 1 1 1 1 1 1 1 1 1 1 0 0 0 0 0 0 0 0 0 0 0 0
0 0 1 2 2 2 1 1 0 0 0 0 0 0 1 1 1 1 1 1 1 1 1 1 1 1 1 1 1 1 1 0 0 0 0 0 0 0 0 0 0 0 0
0 0 1 1 1 1 1 1 1 1 1 1 1 1 1 1 1 1 1 1 1 1 1 1 1 1 1 1 1 1 1 0 0 0 0 0 0 0 0 0 0 0 0
0 0 1 1 1 1 1 1 1 1 1 1 1 1 2 2 2 1 1 1 1 1 1 1 1 1 1 1 1 1 1 0 0 0 0 0 0 1 1 0 0 0 0
0 0 0 1 1 1 1 1 1 1 1 1 1 2 2 2 2 1 1 1 1 1 1 1 1 1 1 1 1 1 1 1 0 0 0 0 0 1 1 1 0 0 0
0 0 1 1 1 1 1 1 1 1 1 1 1 2 2 2 1 1 1 1 1 1 1 1 1 1 1 1 1 1 1 0 0 0 0 0 1 1 1 1 1 1 1
0 1 1 1 1 1 1 1 1 1 1 1 1 1 1 1 1 1 1 1 1 1 1 1 1 1 1 1 1 1 0 0 0 0 0 1 1 1 1 1 1 1 1
0 0 0 1 1 1 1 0 1 1 1 1 1 0 0 0 0 0 1 1 1 1 1 1 0 0 0 0 0 0 0 0 0 0 0 1 1 1 1 2 2 2 1
1 0 0 0 1 1 1 0 0 1 1 0 0 0 0 0 0 0 1 1 1 0 0 0 0 0 0 0 0 0 0 0 0 0 0 1 1 1 1 2 2 2 2
1 1 0 0 0 1 1 1 1 1 1 0 0 0 0 0 0 0 0 1 0 0 0 0 0 0 0 0 0 0 0 0 0 0 1 1 1 1 1 1 2 2 2
1 1 1 1 1 0 0 1 1 1 1 1 0 0 0 0 0 0 0 0 0 0 0 0 0 0 0 0 0 0 0 0 1 1 1 1 1 1 1 1 1 1 1
1 1 1 1 1 1 0 0 1 1 1 1 1 1 1 0 0 0 0 0 0 0 0 0 0 0 0 0 0 1 1 1 1 1 1 1 1 1 1 1 1 1 1
1 1 1 1 1 1 0 0 0 1 1 1 1 1 1 1 1 1 1 1 1 0 0 0 0 0 0 0 1 1 1 1 1 1 1 1 1 1 1 1 1 1 1
1 1 1 1 1 1 1 0 0 1 1 1 1 1 1 1 1 1 1 1 1 0 0 0 0 0 0 0 1 1 1 1 1 1 1 1 1 1 1 1 1 1 1
1 1 1 1 1 1 1 0 1 1 1 1 1 1 1 1 1 1 1 1 1 0 0 0 0 0 1 1 1 1 1 1 1 1 1 1 0 0 0 1 1 1 1
1 1 1 1 1 1 1 1 1 1 1 1 1 1 1 1 1 1 1 1 1 0 0 0 0 0 1 1 1 1 1 1 1 1 1 1 0 0 0 0 0 0 1
1 1 1 1 1 1 1 1 1 1 1 1 1 1 1 1 1 1 1 1 1 0 0 0 0 1 1 2 2 3 3 2 2 2 1 1 0 0 0 0 0 0 0
1 1 1 1 1 1 1 1 1 1 2 1 1 2 1 1 1 1 1 1 0 0 0 0 1 1 2 2 3 4 5 5 4 3 2 1 0 0 0 0 0 0 0
2 2 2 1 1 1 1 1 2 2 2 2 2 2 1 1 1 1 1 0 0 0 0 1 1 2 2 3 4 5 6 7 6 5 3 2 1 0 0 0 0 0 0
2 3 3 2 2 1 1 1 2 2 2 2 2 2 2 1 1 1 0 0 0 0 0 1 1 2 3 4 5 7 7 7 7 6 4 2 1 1 0 0 0 0 0
3 3 3 3 2 2 2 2 2 2 2 3 2 2 1 1 1 0 0 0 0 0 1 1 2 3 4 5 6 8 8 7 6 5 4 3 2 1 0 0 0 0 0
Wind_Speed
2 3 7 10 11 12 12 12 12 13 13 14 14 14 14 15 15 15 16 15 15 16 16 15 15 16 16 16 16 16 16 15 15 15 14 15 14 14 14 14 13 11 15
2 3 8 10 11 12 12 12 12 13 13 14 14 15 15 15 16 16 16 15 16 16 15 15 15 15 15 15 15 15 15 14 14 14 14 13 13 13 13 14 12 9 14
3 3 6 10 11 11 11 12 13 13 14 14 14 14 15 15 16 16 15 15 16 16 16 16 15 14 14 14 14 14 14 14 13 13 12 8 9 12 13 13 13 13 13
4 3 5 9 10 11 11 12 13 13 14 14 14 14 15 15 15 15 15 15 15 16 15 15 14 14 14 14 14 13 13 13 13 12 7 6 6 11 12 12 12 13 13
4 3 5 10 10 10 11 11 12 13 14 14 14 14 14 14 14 14 14 14 15 15 15 14 14 13 13 13 13 12 12 12 12 9 6 5 5 10 11 11 11 12 12
4 3 5 9 10 10 10 11 12 13 13 13 13 13 13 13 13 14 14 14 14 14 13 13 13 12 12 12 11 11 11 11 9 6 6 5 5 9 11 11 11 11 11
4 4 4 9 9 10 11 11 12 12 12 12 13 12 12 12 13 13 13 13 12 12 12 12 12 11 11 11 10 10 10 10 7 6 5 4 5 9 11 11 11 11 11
4 4 4 8 9 10 10 11 11 11 11 12 12 12 12 12 12 12 12 12 11 11 11 10 10 10 10 10 9 9 9 9 7 6 5 4 7 9 10 10 10 11 10
4 4 4 4 5 8 9 10 10 10 10 10 10 10 10 11 11 11 10 11 10 9 9 9 9 9 9 8 8 8 8 8 5 4 5 4 7 9 9 9 10 10 10
4 4 4 4 5 4 5 8 9 9 8 9 9 9 9 9 9 9 8 8 8 8 8 7 7 7 7 6 6 6 7 6 4 4 3 4 8 9 8 9 9 9 10
2 2 3 3 3 3 3 4 5 6 7 7 6 8 7 4 4 4 5 7 7 6 6 6 5 5 5 5 5 6 5 3 4 3 3 6 8 8 8 8 9 9 9
2 1 1 2 2 2 2 3 3 3 3 4 4 4 4 3 2 3 4 4 4 4 4 4 5 4 3 2 3 4 2 3 3 2 3 8 8 8 8 8 9 9 9
2 2 1 1 1 2 2 2 2 2 2 2 3 3 3 2 2 2 2 2 3 3 3 3 3 2 1 1 1 2 3 3 2 2 3 7 8 8 9 9 9 9 9
3 3 2 2 1 1 1 1 1 1 1 1 1 2 2 1 1 1 1 1 1 1 1 2 1 1 1 1 2 2 3 2 2 2 3 7 8 9 9 9 9 9 9
4 3 3 2 2 1 1 0 1 1 1 1 1 1 1 1 0 0 0 0 1 1 1 1 1 1 1 1 1 2 2 3 3 3 2 6 7 8 9 9 8 9 9
4 4 3 3 3 2 1 0 1 1 1 1 0 1 2 1 1 0 0 1 1 1 1 1 1 1 1 1 1 1 2 2 3 3 2 4 6 7 7 7 7 7 8
5 4 4 4 3 2 2 1 1 1 1 1 0 1 2 2 2 1 1 1 0 1 1 1 2 1 1 1 1 1 1 2 2 3 3 2 3 5 6 7 6 6 6
4 4 4 4 4 3 2 1 1 1 1 1 0 1 1 2 2 2 1 1 0 1 1 1 1 1 1 1 1 1 0 1 2 2 2 2 2 2 4 7 6 6 6
5 5 4 3 4 4 3 2 1 1 1 1 1 1 1 1 2 2 1 1 1 1 1 1 1 1 1 1 1 1 0 0 1 2 2 2 2 2 2 3 5 6 7
5 4 4 3 3 3 2 2 1 1 1 1 1 0 1 1 2 2 1 1 1 1 1 1 1 1 1 1 1 1 1 0 0 1 2 2 2 3 3 2 2 3 5
4 4 4 4 3 3 2 1 1 0 0 0 0 1 1 1 1 2 1 1 1 1 1 2 1 1 0 1 1 1 2 1 1 1 1 1 2 2 1 2 2 2 2
6 5 4 4 4 3 2 2 2 1 1 1 0 1 0 1 1 1 1 1 1 1 1 1 2 1 0 1 1 1 1 2 1 1 1 1 2 1 1 2 2 2 2
6 6 6 4 4 3 3 2 2 2 2 1 1 1 1 1 1 1 1 1 1 1 1 1 2 2 1 1 1 2 2 1 1 1 1 0 1 1 1 1 2 2 2
7 6 5 5 4 3 4 3 3 2 2 1 1 0 1 1 1 1 1 1 1 0 1 1 1 1 2 1 1 1 1 2 2 0 1 1 0 0 1 1 1 0 1
6 6 6 5 4 4 4 4 4 2 2 1 1 1 0 0 0 0 1 1 1 0 1 1 1 1 1 2 1 1 1 1 1 2 1 1 1 1 1 1 1 1 1
5 5 5 5 4 4 4 4 4 4 2 1 1 1 0 0 0 0 0 1 1 1 1 1 1 1 2 2 1 1 2 2 2 2 2 1 0 1 1 1 1 2 2
Wind_Direction
3 11 64 75 82 87 88 90 93 95 96 97 100 100 102 105 109 110 115 114 113 113 113 113 111 111 111 111 112 113 113 114 115 116 115 117 119 118 119 118 117 117 120
51 31 73 78 82 85 86 88 91 94 95 98 99 100 102 105 107 107 109 111 112 111 110 110 110 111 112 112 113 114 114 114 115 117 116 116 118 119 119 120 120 123 125
55 40 72 80 83 84 85 88 91 94 97 98 98 99 101 103 105 105 107 109 110 109 108 107 109 109 111 113 112 113 115 115 114 114 111 110 118 120 122 123 124 123 124
66 48 77 84 84 85 86 90 93 96 99 99 99 100 101 101 103 106 107 108 109 110 109 109 108 108 109 111 112 111 114 115 113 110 101 107 115 124 126 126 126 127 126
61 46 80 86 87 87 88 93 95 98 101 102 101 100 102 103 104 106 108 109 109 109 109 108 109 109 109 110 110 111 115 116 114 106 101 101 107 127 129 131 131 131 131
60 48 79 88 89 89 90 94 98 99 101 102 102 102 103 105 107 108 108 108 109 110 109 109 109 108 110 112 112 112 115 116 109 106 109 115 120 133 134 135 134 133 134
64 45 71 89 88 88 91 94 98 99 101 101 101 102 102 104 107 109 109 109 110 111 111 110 110 110 111 112 115 115 116 119 112 113 115 121 133 139 141 140 137 136 137
75 52 58 88 90 90 92 95 98 100 100 101 102 103 103 103 105 107 109 111 111 111 111 111 111 111 111 112 117 119 121 122 121 123 121 130 142 144 142 141 141 142 141
67 56 44 53 75 89 93 96 97 98 101 101 103 104 105 105 106 106 107 110 111 111 112 115 115 112 112 113 115 121 125 125 121 131 136 139 148 148 148 148 147 148 149
63 52 47 49 50 54 72 95 101 101 103 105 106 106 104 103 102 103 104 108 109 111 113 116 116 114 113 115 118 125 130 118 123 131 136 153 157 154 156 158 157 156 156
83 46 47 51 52 55 60 84 93 100 99 98 95 98 87 70 70 84 102 109 107 107 109 110 112 112 110 113 118 122 119 121 133 140 149 163 165 165 166 167 166 166 164
146 109 68 63 52 45 63 60 47 55 64 68 66 69 69 64 61 70 75 95 99 98 95 91 92 93 87 93 122 119 117 138 146 160 173 177 178 176 174 174 174 173 174
166 157 150 119 76 56 43 57 50 54 59 61 71 74 71 58 52 49 45 45 46 56 59 63 65 67 80 103 123 143 153 157 166 175 184 187 188 185 185 185 185 185 184
164 179 177 150 123 104 65 50 65 72 71 76 80 90 89 71 51 48 56 46 41 44 50 48 62 63 83 114 150 161 167 171 173 177 196 195 193 195 196 194 193 193 192
181 190 184 169 169 160 111 49 98 103 104 117 122 111 124 123 107 66 42 41 45 69 71 57 57 54 64 84 145 166 177 180 177 181 195 201 202 201 202 200 197 199 199
191 193 180 174 177 159 152 156 109 111 104 91 147 158 152 151 154 135 24 43 37 58 70 81 72 67 55 83 108 163 181 182 183 191 199 205 206 199 200 202 200 200 202
189 182 182 180 160 158 170 184 158 135 123 121 202 179 170 164 164 159 131 77 26 42 63 68 62 63 56 63 65 106 160 183 188 194 199 204 209 202 198 204 208 209 213
176 173 185 185 159 162 163 164 129 119 125 141 192 171 180 172 157 141 143 161 167 116 106 99 85 67 52 60 31 4 88 162 191 195 194 200 202 207 213 217 216 217 223
175 170 174 175 159 163 158 132 119 100 108 128 121 135 147 154 147 142 148 169 141 117 108 123 104 124 115 73 48 29 51 164 202 197 193 197 199 205 215 230 229 224 227
169 169 173 173 163 150 132 106 83 64 56 78 113 160 151 146 153 147 150 166 145 130 118 133 136 121 135 124 78 37 17 251 159 199 209 199 198 211 217 223 236 247 246
167 175 179 173 168 144 130 135 125 140 109 72 141 171 166 156 154 159 166 163 161 161 177 166 140 132 135 129 91 32 19 37 76 218 209 200 209 217 216 230 231 240 262
180 184 183 184 175 170 157 148 149 144 139 126 54 41 131 165 183 171 151 162 177 168 151 157 150 144 197 147 136 107 359 0 356 296 197 203 216 213 226 236 226 225 242
185 185 187 188 188 184 161 124 99 75 52 54 39 21 13 118 128 118 151 149 141 156 180 193 176 177 202 211 173 156 162 221 309 352 349 232 212 227 241 247 236 231 233
191 180 175 177 183 179 161 159 161 162 178 207 165 106 10 64 84 110 127 132 137 157 190 214 187 190 184 223 227 212 196 173 166 158 3 33 81 253 276 299 324 297 261
182 175 176 174 181 178 171 173 170 177 183 158 118 121 60 46 73 174 164 135 131 192 247 233 192 198 195 200 207 197 183 166 169 167 221 0 31 28 23 29 31 16 14
168 169 169 167 178 177 173 174 179 189 185 148 140 157 174 7 350 308 192 165 167 196 242 251 220 211 219 212 216 198 176 172 182 174 188 204 43 27 38 38 41 31 38